Погода Каменское

Погода Каменское : погода сейчас, прогноз погоды и архив. Всё, что Вы хотите узнать о погоде Каменское!

Поиск расширенной информации на нашем сайте:

Другие новости

Новости СМИ2

Главная страница сайта

Новости сайта

02.10.2013

Напоминаем, что на нашем новом сайте вы можете получить высокодетализированные прогнозы погоды по пунктам России, СНГ и мира (включающие важные для авиации метеовеличины, такие как направление и скорость ветра, видимость, явления погоды, количество и форма облачности, нижняя и верхняя граница облачности), а также ознакомиться с разнообразными материалами по авиационной метеорологии и подборкой полезных ссылок на эту тему.

Сайт Метеоцентр.Азия посвящён разработке технологий оптимизации авиаметеорологического обслуживания, включая проектирование и перспективное создание нескольких автоматизированных авиаметеорологических систем:
- система выпуска высокодетальных прогностических карт явлений погоды для нижнего воздушного пространства по России и ближнему зарубежью;
- система верификации прогнозов TAF (выпускаемых синоптиками официальных АМСГ РФ и ближнего зарубежья) и AUTOTAF (выпускаемых сайтом Метеоцентр.Азия) - выявление ошибок, онлайн-сопоставление с фактической погодой METAR, автоматическое внесение коррективов в прогнозы при резком отклонении фактической погоды от прогноза, подсчёт оправдываемости прогнозов по элементам и в целом;
- система обработки, анализа и отображения авиаметеорологической информации для применения провайдерами метеорологической информации.

Рекомендуем: Лучшие тампоны китайские clean point по супер низким ценам!

Погода Каменское - сегодня

Время (UTC), дата Ветер
(°,м/с) 
Видим.   Явления Облачность Т
(°С)
Тd
(°С)
f(%) Тe
(°С)
Pmin
(гПа)
dP
(гПа)
Po
(мм)
O2
(г/м3)
Тmin Tmax R s Состояние
почвы
00 26.03.17 100 (В) 20000 м    9/9 1500 м 
[Sc]
-10.1 -14.7 69 -13  1017.8  0.1  759  319           
03 26.03.17 080 (В) 20000 м    9/9 1500 м 
[Sc]
-8.7 -14.1 65 -13  1017.4  -0.4  759  317           
06 26.03.17 080 (В) 20000 м    10/10 1000 м 
[Sc]
-9.5 -13.7 71 -11  1017.2  -0.2  759  318           
09 26.03.17 080 (В) 20000 м    10/10 1000 м 
[Sc]
-11.7 -14.6 79 -15  1017.7  0.5  759  321    -8.2       
12 26.03.17 120 (ЮВ) 20000 м    9/9 1000 м 
[Sc]
-14.6 -16.3 87 -17  1018.2  0.4  760  325           
15 26.03.17 100 (В) н/о    н/о 
-18 -20.3 82 -18  1018.2  0.1  760  329           
18 26.03.17 110 (В) н/о    н/о 
-21.2 -23.7 80 -22  1018.3  0.1  760  334           
21 26.03.17 120 (ЮВ) 20000 м    ясно 
-19 -21.6 80 -22  1018.8  0.6  760  331  -22.2      26  равномерный
сухой снег
100% 
00 27.03.17 110 (В) 20000 м    ясно 
-13.7 -18.5 67 -18  1018.6  0.1  760  324           
03 27.03.17 110 (В) 20000 м    ясно 
-11.8 -17.9 60 -15  1017.4  -1.1  759  321           
06 27.03.17 110 (В) 20000 м    ясно 
-13.4 -18.4 66 -17  1017.2  -0.3  759  323           
09 27.03.17 110 (В) 20000 м    ясно 
-18.1 -20.7 80 -21  1017.9  0.6  759  329    -11.4       
12 27.03.17 110 (В) 20000 м    ясно 
-20.1 -22.5 81 -20  1018  0.1  759  332           
15 27.03.17 090 (В) н/о    н/о 
-23.5 -26.5 76 -24  1018  0.1  759  337           
18 27.03.17 140 (ЮВ) н/о    н/о 
-24.8 -27.7 77 -28  1018.4  0.4  760  338           
21 27.03.17 100 (В) 20000 м    6/6 600 м 
[Sc]
-20.7 -23.5 78 -25  1018.9  0.6  760  333  -25.7      26  равномерный
сухой снег
100% 
00 28.03.17 110 (В) 20000 м    3/3 1000 м 
[Sc]
-15.3 -20.2 66 -20  1018.7  0.1  760  326           
03 28.03.17 090 (В) 20000 м    ясно 
-12.8 -18 65 -17  1018.1  -0.5  760  323           
06 28.03.17 080 (В) 20000 м    ясно 
-14.2 -18.8 68 -19  1018  -0.2  759  324           
09 28.03.17 120 (ЮВ) 20000 м    1/1 1000 м 
[Sc]
-18.6 -21.2 80 -21  1018.9  0.8  760  330    -12.3       
12 28.03.17 110 (В) 20000 м    ясно 
-21.1 -23.6 80 -24  1019.5  0.6  761  334           
15 28.03.17 120 (ЮВ) н/о    н/о 
-22.6 -25.4 78 -26  1019.6  761  336           
18 28.03.17 120 (ЮВ) н/о    н/о 
-23.5 -26.5 76 -27  1020  0.4  761  337           
21 28.03.17 110 (В) 20000 м    4/0 средняя, верхняя 
[Ac trans|Ci fib]
-21.3 -24.1 78 -24  1020.6  0.7  761  334  -24.7      26  равномерный
сухой снег
100% 
00 29.03.17 110 (В) 20000 м    4/0 верхняя 
[Ci fib]
-15 -19.8 67 -20  1020.5  761  326           
Время (UTC), дата Ветер
(°,м/с) 
Видим.   Явления Облачность Т
(°С)
Тd
(°С)
f(%) Тe
(°С)
Pmin
(гПа)
dP
(гПа)
Po
(мм)
O2
(г/м3)
Тmin Tmax R s Состояние
почвы

Для получения пояснительной информации подведите курсор к названию столбца.

ПОГОДА Каменское - архив

Всё, что Вы хотите узнать о погоде Каменское - удобно и подробно!

Выберите нужную дату (начиная с 1 января 2015* года) и нажмите кнопку "Найти".
Будут отображены архивные сводки погоды по пункту Каменское, начиная с указанной даты.


Отображать данные в формате CSV (для использования в таблицах Excel)


Внимание! Наш архив погоды предназначен исключительно для личного некоммерческого использования в познавательных целях. Если Вам необходимы официальные справки о состоянии погоды (для производственных, юридических, коммерческих и т.п. целей), обращайтесь в органы Росгидромета.

*Примечание: данная дата относится к архиву по метеостанциям СССР (Россия, СНГ, Балтия).
Архив по метеостанциям Зарубежной Европы и Азии (кроме Китая) хранится 10 дней, по другим регионам земного шара (Китай, Африка, Америка, Австралия, Океания) - 1 день.

Каменское - район местоположения метеостанции


Название, широта, долгота, высота метеостанции:
Каменское 62.43°ш. 166.08°д. 10 м над ур. моря [Российская Федерация]

Дополнительная информация

В oтличие oт бoльшинства пoгoдных сайтoв мы публикуем пoдрoбную метеoинфoрмацию в детальнoм прoфессиoнальнoм фoрмате.

Характеристики температуры и влажнoсти вoздуха измеряются на высoте 2 м в тени вдали oт зданий и деревьев.
Скoрoсть ветра измеряется на высoте 10 м (на урoвне рoста челoвека скoрoсть ветра ниже в 1.5-2 раза). Если метеoстанция нахoдится в гoрoде или в лесу, тo скoрoсть ветра занижена на 2-4 м/с пo сравнению с oткрытым местoм. Скoрoсть ветра над акватoриями крупных рек и oзёр, а также на вершинах хoлмoв на 2-5 м/с выше, чем в oбычных услoвиях.
Атмoсфернoе давление в разных тoчках местнoсти мoжет значительнo oтличаться oт давления на метеoстанции, в зависимoсти oт услoвий рельефа (при пoдъёме на 10 м давление пoнижается примернo на 1 мм рт.ст.).